Milan, Italy

6:29 AM CET on December 08, 2016 (GMT +0100)
Malpensa

Weather History for LIMC - July, 2013

Change the Weather History Date:

Sunday, July 21, 2013

  Actual Average Record
Temperature  
Mean Temperature 74 °F -  
Max Temperature 87 °F 82 °F 96 °F (2015)
Min Temperature 62 °F 59 °F 51 °F (2011)
Cooling Degree Days 10    
Growing Degree Days 24 (Base 50)    
Moisture  
Dew Point 61 °F    
Average Humidity 60    
Maximum Humidity 94    
Minimum Humidity 38    
Precipitation  
Precipitation 0.00 in 0.12 in - ()
Sea Level Pressure  
Sea Level Pressure 30.05 in    
Wind  
Wind Speed 4 mph ()    
Max Wind Speed 9 mph    
Max Gust Speed 25 mph    
Visibility 6.2 miles    
Events      
Averages and records for this station are not official NWS values.
T = Trace of Precipitation, MM = Missing Value Source: Averaged Metar Reports

Daily Weather History Graph

Daily Weather History Graph

Search for Another Location

Airport or City:

Trip Planner

Search our weather history database for the weather conditions in past years. The results will help you decide how hot, cold, wet, or windy it might be!

Date:

Astronomy

Jul. 21, 2013 Rise Set
Actual Time 5:56 AM CEST 9:06 PM CEST
Civil Twilight 5:20 AM CEST 9:41 PM CEST
Nautical Twilight 4:34 AM CEST 10:27 PM CEST
Astronomical Twilight 3:37 AM CEST 11:24 PM CEST
Moon 7:47 PM CEST (7/21) 4:24 AM CEST (7/21)
Length of Visible Light 16h 21m
Length of Day
15h 09m
Waxing Gibbous, 97% of the Moon is Illuminated
Jul 21
Waxing Gibbous
Jul 22
Full
Jul 29
Last Quarter
Aug 6
New
Aug 14
First Quarter

Hourly Weather History & Observations

Time (CEST) Temp. Heat Index Dew Point Humidity Pressure Visibility Wind Dir Wind Speed Gust Speed Precip Events Conditions
12:20 AM 71.6 °F - 60.8 °F 69% 30.04 in 6.2 mi Variable 2.3 mph - N/A   Scattered Clouds
12:50 AM 71.6 °F - 60.8 °F 69% 30.04 in 6.2 mi Variable 1.2 mph - N/A   Partly Cloudy
1:20 AM 69.8 °F - 60.8 °F 73% 30.04 in - North 3.5 mph - N/A   Clear
1:50 AM 68.0 °F - 59.0 °F 73% 30.04 in - North 5.8 mph - N/A   Clear
2:20 AM 66.2 °F - 59.0 °F 78% 30.04 in - NNE 3.5 mph - N/A   Clear
2:50 AM 66.2 °F - 59.0 °F 78% 30.04 in - NNE 2.3 mph - N/A   Clear
3:20 AM 64.4 °F - 60.8 °F 88% 30.04 in - Variable 2.3 mph - N/A   Clear
3:50 AM 64.4 °F - 60.8 °F 88% 30.04 in - NE 3.5 mph - N/A   Clear
4:20 AM 64.4 °F - 60.8 °F 88% 30.04 in - Calm Calm - N/A   Clear
4:50 AM 62.6 °F - 60.8 °F 94% 30.04 in - North 3.5 mph - N/A   Clear
5:20 AM 64.4 °F - 60.8 °F 88% 30.04 in - North 5.8 mph - N/A   Clear
5:50 AM 62.6 °F - 60.8 °F 94% 30.04 in - North 4.6 mph - N/A   Clear
6:20 AM 64.4 °F - 60.8 °F 88% 30.04 in - NNW 4.6 mph - N/A   Clear
6:50 AM 66.2 °F - 60.8 °F 83% 30.04 in - North 2.3 mph - N/A   Clear
7:20 AM 68.0 °F - 60.8 °F 78% 30.06 in - North 3.5 mph - N/A   Clear
7:50 AM 71.6 °F - 60.8 °F 69% 30.06 in - North 5.8 mph - N/A   Clear
8:20 AM 75.2 °F - 60.8 °F 61% 30.06 in - North 5.8 mph - N/A   Clear
8:50 AM 75.2 °F - 60.8 °F 61% 30.06 in - North 5.8 mph - N/A   Clear
9:20 AM 78.8 °F - 59.0 °F 51% 30.09 in - Variable 3.5 mph - N/A   Clear
9:50 AM 80.6 °F 81.1 °F 59.0 °F 48% 30.09 in - Variable 8.1 mph - N/A   Clear
10:20 AM 80.6 °F 81.1 °F 59.0 °F 48% 30.09 in - East 8.1 mph - N/A   Clear
10:50 AM 82.4 °F 82.0 °F 57.2 °F 42% 30.09 in - ESE 9.2 mph - N/A   Clear
11:20 AM 80.6 °F 81.1 °F 59.0 °F 48% 30.09 in - East 9.2 mph 25.3 mph N/A   Clear
11:50 AM 82.4 °F 82.0 °F 57.2 °F 42% 30.09 in - Variable 9.2 mph - N/A   Clear
12:20 PM 82.4 °F 82.5 °F 59.0 °F 45% 30.09 in - ESE 8.1 mph - N/A   Clear
12:50 PM 84.2 °F 83.8 °F 59.0 °F 42% 30.09 in - Variable 5.8 mph - N/A   Clear
1:20 PM 84.2 °F 83.5 °F 57.2 °F 40% 30.09 in - Variable 5.8 mph - N/A   Clear
1:50 PM 87.8 °F 87.1 °F 59.0 °F 38% 30.06 in - Variable 6.9 mph - N/A   Clear
2:20 PM 86.0 °F 85.4 °F 59.0 °F 40% 30.06 in - East 5.8 mph - N/A   Clear
2:50 PM 86.0 °F 86.1 °F 60.8 °F 43% 30.06 in - SSW 8.1 mph - N/A   Clear
3:20 PM 86.0 °F 86.1 °F 60.8 °F 43% 30.06 in 6.2 mi Variable 6.9 mph - N/A   Partly Cloudy
3:50 PM 87.8 °F 87.6 °F 60.8 °F 40% 30.06 in 6.2 mi SE 5.8 mph - N/A   Partly Cloudy
4:20 PM 87.8 °F 87.6 °F 60.8 °F 40% 30.04 in 6.2 mi SW 6.9 mph 18.4 mph N/A   Partly Cloudy
4:50 PM 87.8 °F 87.6 °F 60.8 °F 40% 30.04 in 6.2 mi WSW 6.9 mph - N/A   Partly Cloudy
5:20 PM 87.8 °F 87.6 °F 60.8 °F 40% 30.04 in 6.2 mi South 5.8 mph - N/A   Partly Cloudy
5:50 PM 87.8 °F 87.6 °F 60.8 °F 40% 30.04 in 6.2 mi South 4.6 mph - N/A   Partly Cloudy
6:20 PM 86.0 °F 86.1 °F 60.8 °F 43% 30.04 in - South 5.8 mph - N/A   Clear
6:50 PM 86.0 °F 86.1 °F 60.8 °F 43% 30.04 in - Variable 3.5 mph - N/A   Clear
7:20 PM 86.0 °F 86.1 °F 60.8 °F 43% 30.04 in - SW 5.8 mph - N/A   Clear
7:50 PM 84.2 °F 85.0 °F 62.6 °F 48% 30.04 in - WSW 5.8 mph - N/A   Clear
8:20 PM 82.4 °F 83.9 °F 64.4 °F 54% 30.04 in - SW 5.8 mph - N/A   Clear
8:50 PM 80.6 °F 82.3 °F 64.4 °F 58% 30.04 in - SW 4.6 mph - N/A   Clear
9:20 PM 80.6 °F 81.8 °F 62.6 °F 54% 30.04 in - West 5.8 mph - N/A   Clear
9:50 PM 77.0 °F - 62.6 °F 61% 30.04 in - Calm Calm - N/A   Clear
10:20 PM 78.8 °F - 62.6 °F 57% 30.06 in - Variable 1.2 mph - N/A   Clear
10:50 PM 73.4 °F - 64.4 °F 73% 30.06 in - SE 3.5 mph - N/A   Clear
11:20 PM 71.6 °F - 66.2 °F 83% 30.06 in - Variable 1.2 mph - N/A   Clear
11:50 PM 71.6 °F - 66.2 °F 83% 30.06 in - Calm Calm - N/A   Clear